Accueil
METAR-TAF:

METAR-TAF

Aéroports :

Municipal

Tunica, Mississippi, États-Unis

latitude: 34-41-06N, longitude: 090-20-52W, altitude: 59 m

Observation

Le bulletin a été fait il y a 19 minutes, à 22:35 UTC
Vent 10 kt de ouest
Température 12°C
Humidité 44%
Pression 1023 hPa
Visibilité: 16.1 km

METAR: KUTA 282235Z AUTO 26010KT 10SM 12/00 A3022 RMK AO2 TSNO

Heure: 16:54 (22:54 UTC)


TAF: absent

Observations et prévisions météorologiques de plus de 4000 aéroports (messages METAR et TAF).

Les stations disponibles sont représentées par des disques jaunes et rouges sur la carte.

Passer la souris dessus pour voir le nom de la station.

Cliquer dessus pour voir les observations et prévisions météorologiques.

Pour changer de carte: cliquez sur les boutons verts avec une croix noire pour zoomer, sur le bouton vert avec un tiret pour effectuer un zoom arrière, ou sur les flèches vertes pour les cartes adjacentes.


METAR-TAF: